Regional Weather Roundup
Issued by NWS

Home | Current Version | Previous Version | Text Only | Print | Product List | Glossary Off
Versions: 1 2 3 4 5 6 7 8 9 10 11 12 13 14 15 16 17 18 19 20 21 22 23 24 25 26 27 28 29 30 31 32 33 34 35 36 37 38 39 40 41 42 43 44 45 46 47 48 49 50

000
ASUS43 KMKX 291717
RWRWI

WISCONSIN REGIONAL WEATHER ROUNDUP
NATIONAL WEATHER SERVICE MILWAUKEE/SULLIVAN WI
1200 PM CDT FRI MAY 29 2015

NOTE: "FAIR" INDICATES FEW OR NO CLOUDS BELOW 12,000 FEET WITH NO
SIGNIFICANT WEATHER AND/OR OBSTRUCTIONS TO VISIBILITY.

WIZ001-002-006>008-014>016-023>028-291800-
NORTHWEST WISCONSIN

CITY           SKY/WX    TMP DP  RH WIND       PRES   REMARKS
SUPERIOR ARPT  CLOUDY    65  56  72 SW3       29.89R
ASHLAND        CLOUDY    68  63  84 SW9       29.88S
HAYWARD        CLOUDY    67  62  84 SW6       29.90S
SIREN          CLOUDY    68  63  83 W5        29.90S
CUMBERLAND     CLOUDY    64  63  94 W5        29.91S
RICE LAKE      DRIZZLE   66  63  88 S3        29.92S
CHETEK         CLOUDY    67  64  91 CALM      29.91S
LADYSMITH      CLOUDY    67  63  87 SW7       29.94R
EAU CLAIRE     CLOUDY    70  64  81 SW7       29.89F
MENOMONIE      CLOUDY    70  65  85 S6        29.90S
NEW RICHMOND   CLOUDY    69  66  91 SW5       29.89F
OSCEOLA        LGT RAIN  69  68  94 CALM      29.91F
$$

WIZ003>005-009-010-017-018-291800-
NORTH CENTRAL WISCONSIN

CITY           SKY/WX    TMP DP  RH WIND       PRES   REMARKS
MANITOWISH WTR CLOUDY    67  61  80 SW12G17   29.91S
ARBOR VITAE    RAIN      66  62  87 SW7       29.92S
WOODRUFF       RAIN      66  62  87 SW7       29.92S
RHINELANDER    CLOUDY    71  60  68 SW15G22   29.93S
EAGLE RIVER    CLOUDY    70  58  65 SW13      29.91S
LAND O LAKES   CLOUDY    71  59  66 SW10G16   29.91F
PHILLIPS       CLOUDY    66  63  89 SW7       29.91S
TOMAHAWK       CLOUDY    69  61  74 S3        29.93S
MEDFORD        CLOUDY    66  62  88 S9        29.94S
MERRILL        CLOUDY    70  62  77 SW9G16    29.94F
$$

WIZ029-030-035-036-043>047-291800-
CENTRAL WISCONSIN

CITY           SKY/WX    TMP DP  RH WIND       PRES   REMARKS
WAUSAU         PTSUNNY   73  62  68 SW12      29.92F
MOSINEE        PTSUNNY   72  64  78 S8G16     29.95F
MARSHFIELD     PTSUNNY   73  63  70 S12       29.93F
STEVENS POINT  CLOUDY    72  62  69 S13       29.95F
WAUPACA        CLOUDY    72  67  83 S7        29.97S
WAUTOMA        NOT AVBL
WISC RAPIDS    CLOUDY    74  62  66 SW12      29.95F
CAMP DOUGLAS   NOT AVBL
$$

WIZ011>013-019>022-031-037>040-048>050-291800-
NORTHEAST WISCONSIN

CITY           SKY/WX    TMP DP  RH WIND       PRES   REMARKS
ANTIGO         CLOUDY    72  64  76 SW15      29.95F
SHAWANO        CLOUDY    71  63  75 SW7       29.96S
OCONTO         CLOUDY    68  66  92 S7        29.96F
STURGEON BAY   CLOUDY    66  61  82 S8        30.00S
GREEN BAY      CLOUDY    73  65  75 SW10      29.96F
MANITOWOC      NOT AVBL
APPLETON       CLOUDY    72  63  73 S12       29.97F
CLINTONVILLE   CLOUDY    70  63  78 S7        29.96S
OSHKOSH        CLOUDY    75  64  68 S10       29.96F
$$

WIZ032>034-041-042-053>061-291800-
SOUTHWEST WISCONSIN

CITY           SKY/WX    TMP DP  RH WIND       PRES   REMARKS
LA CROSSE      CLOUDY    75  64  68 S10       29.91F
SPARTA         CLOUDY    74  61  63 W5        29.93F
VIROQUA        CLOUDY    74  63  68 S8        29.95F
BOSCOBEL       CLOUDY    76  64  66 S5        29.94F
PRAIRIE DU CHI PTSUNNY   74  62  66 S5        29.94S
PLATTEVILLE    CLOUDY    74  68  83 S9        29.95F
$$

WIZ056-057-062-063-064-067-068-291800-
SOUTH CENTRAL WISCONSIN

CITY           SKY/WX    TMP DP  RH WIND       PRES   REMARKS
REEDSBURG      CLOUDY    72  66  81 S5        29.95F
BARABOO/DELLS  CLOUDY    72  64  77 S7        29.96F
LONE ROCK      NOT AVBL
MINERAL POINT  CLOUDY    73  68  83 S13       29.96F
MADISON        CLOUDY    77  65  66 S12       29.95F
MIDDLETON      PTSUNNY   77  66  68 S10       29.97F
WATERTOWN      PTSUNNY  N/A N/A N/A S12       29.97F
MONROE         PTSUNNY   73  66  78 S13       29.97F
JANESVILLE     PTSUNNY   79  66  65 S8        29.97F HX  81
$$

WIZ051-052-058>065-066-070>072-291800-
SOUTHEAST WISCONSIN

CITY           SKY/WX    TMP DP  RH WIND       PRES   REMARKS
MILWAUKEE      CLOUDY    77  64  64 S12G20    29.98F
WAUKESHA       LGT RAIN  72  66  83 SW12      30.00F
MILWAUKEE/TIMM PTSUNNY   79  61  53 S15       29.99F HX  80
RACINE         CLOUDY    72  63  73 S14       30.01F HAZE
BURLINGTON     CLOUDY    77  64  64 S10G16    29.99F
KENOSHA        CLOUDY    79  66  64 SW8       30.00F HX  81
FOND DU LAC    CLOUDY    77  65  66 S12       29.96F
SHEBOYGAN      PTSUNNY   74  66  76 SE8       29.98F
WEST BEND      PTSUNNY   77  64  65 S8        29.98F
JUNEAU         CLOUDY    76  66  69 S17       29.99F
$$

LSZ147-162-291800-
LAKE SUPERIOR

STATION/POSITION TIME  TEMP    WIND        PRES    WAVE
                       AIR SEA DIR/SP/G            HT/PER
                 (UTC) (F)     (DEG/KT/KT) (MB)    (FT/S)
W MID LAKE BUOY  1550   44 37  150/  2/  2   N/A     1
DEVILS ISLAND    1600   42     280/  6/  6   N/A
PORT WING        1540   44     290/  6/ 10   N/A
SAXON HARBOR     1640   67     210/  4/  9   N/A
$$

LMZ867-665-643>646-291800-
LAKE MICHIGAN

STATION/POSITION TIME  TEMP    WIND        PRES    WAVE
                       AIR SEA DIR/SP/G            HT/PER
                 (UTC) (F)     (DEG/KT/KT) (MB)    (FT/S)
CHAMBERS ISLAND  1500   63     170/  4/  7   N/A
N MID LAKE BUOY  1550   43 37  200/ 14/ 17   N/A     1
SISTER BAY       1618   56     140/ 12/ 16   N/A
ALGOMA LAKESHORE 1538          170/  1/  3   N/A
KEWAUNEE LAKESHO 1600   50     180/ 11/ 13   N/A
SHEBOYGAN LAKESH 1600   54     160/ 18/ 19   N/A
PORT WASHINGTON  1640   58     140/  2/  3   N/A
ATWATER BUOY     1600   54     180/  6/  8   N/A
MILWAUKEE LAKESH 1600   57      60/  2/  5   N/A
S MID LAKE BUOY  1550   47 38  170/ 10/ 10   N/A     1
KENOSHA   LAKESH 1600   59     180/ 11/ 14   N/A
$$

TC  - TEMPERATURE IN CELSIUS
VSB - VISIBILITY IN STATUTE MILES
WCI - WIND CHILL INDEX
HX  - HEAT INDEX



USA.gov is the U.S. government's official web portal to all federal, state and local government web resources and services.